Regional Weather Roundup
Issued by NWS

Home | Current Version | Previous Version | Graphics & Text | Print | Product List | Glossary On
Versions: 1 2 3 4 5 6 7 8 9 10 11 12 13 14 15 16 17 18 19 20 21 22 23 24 25 26 27 28 29 30 31 32 33 34 35 36 37 38 39 40 41 42 43 44 45 46 47 48 49 50
700
ASUS43 KDTX 281810
RWRMI
MICHIGAN HOURLY REGIONAL WEATHER ROUNDUP
NATIONAL WEATHER SERVICE DETROIT/PONTIAC MI
ISSUED BY NATIONAL WEATHER SERVICE GRAND RAPIDS MI
200 PM EDT SUN MAY 28 2017

NOTE: "FAIR" INDICATES FEW OR NO CLOUDS BELOW 12,000 FEET WITH NO
SIGNIFICANT WEATHER AND/OR OBSTRUCTION TO VISIBILITY.

MIZ047>049-052>055-059>063-066>070-074>076-081>083-281900-
SOUTHEAST LOWER MICHIGAN

CITY           SKY/WX    TMP DP  RH WIND       PRES   REMARKS
ADRIAN         PTSUNNY   76  65  68 SE8       29.71F
6HR MIN TEMP:  60; 6HR MAX TEMP:  76;

ALMA           PTSUNNY   77  56  48 SW8       29.71F
ANN ARBOR      CLOUDY    75  64  68 SE13G18   29.71F
BAD AXE        SUNNY     73  53  48 SE9G17    29.73F
6HR MIN TEMP:  60; 6HR MAX TEMP:  73;

DETROIT CITY   MOSUNNY   74  61  63 E10       29.73F
6HR MIN TEMP:  62; 6HR MAX TEMP:  74;

DETROIT        PTSUNNY   75  62  64 SE8       29.72F
6HR MIN TEMP:  62; 6HR MAX TEMP:  77;

FLINT          MOSUNNY   76  57  51 S7        29.71F
6HR MIN TEMP:  61; 6HR MAX TEMP:  76;

GROSSE ILE     PTSUNNY   70  61  74 S6        29.72F
6HR MIN TEMP:  60; 6HR MAX TEMP:  71;

HILLSDALE      CLOUDY    73  63  68 CALM      29.72F
HOWELL         CLOUDY    75  58  57 S7        29.72F
6HR MIN TEMP:  61; 6HR MAX TEMP:  76;


CITY           SKY/WX    TMP DP  RH WIND       PRES   REMARKS
JACKSON        PTSUNNY   76  63  64 S9        29.71F
6HR MIN TEMP:  62; 6HR MAX TEMP:  76;

LANSING        CLOUDY    78  59  51 S9        29.72S
6HR MIN TEMP:  63; 6HR MAX TEMP:  78;

MASON          CLOUDY    76  63  62 SW5       29.71F
MONROE         CLOUDY    71  60  68 E7        29.72F
6HR MIN TEMP:  63; 6HR MAX TEMP:  72;

MT. CLEMENS    PTSUNNY   73  61  66 E7        29.72F
6HR MIN TEMP:  59; 6HR MAX TEMP:  73;

PONTIAC        PTSUNNY   75  59  57 SE10G16   29.72F
6HR MIN TEMP:  62; 6HR MAX TEMP:  75;

PORT HOPE        N/A     64  55  72 E17       29.73F
6HR MIN TEMP:  62; 6HR MAX TEMP:  72;

PORT HURON     PTSUNNY   73  55  53 SE6       29.74F
TRI CITIES     MOSUNNY   76  56  49 VRB5      29.71F
6HR MIN TEMP:  62; 6HR MAX TEMP:  77;

YPSILANTI      MOSUNNY   77  63  61 E7        29.72F
6HR MIN TEMP:  61; 6HR MAX TEMP:  78;

$$
MIZ043>046-050>051-056>058-064>065-071>073-077>080-281900-
SOUTHWEST LOWER MICHIGAN

CITY           SKY/WX    TMP DP  RH WIND       PRES   REMARKS
BATTLE CREEK   CLOUDY    75  62  64 W7        29.72F
6HR MIN TEMP:  61; 6HR MAX TEMP:  77;

BENTON HARBOR  MOSUNNY   67  57  70 VRB7      29.73F
6HR MIN TEMP:  63; 6HR MAX TEMP:  74;

BIG RAPIDS     CLOUDY    64  53  68 NW9G21    29.75R
6HR MIN TEMP:  59; 6HR MAX TEMP:  71;

COLDWATER      LGT RAIN  73  64  74 CALM      29.71F
6HR MIN TEMP:  60; 6HR MAX TEMP:  75;

HOLLAND        SUNNY     71  58  63 NW10      29.74F
6HR MIN TEMP:  63; 6HR MAX TEMP:  76;

GRAND RAPIDS   TSTM      70  63  78 SW10      29.71F
6HR MIN TEMP:  63; 6HR MAX TEMP:  77; 6HR PCP:  0.04;

KALAMAZOO      PTSUNNY   75  61  61 SW6       29.71F
6HR MIN TEMP:  62; 6HR MAX TEMP:  76;

MARSHALL       CLOUDY    77  62  61 W6        29.71F
6HR MIN TEMP:  61; 6HR MAX TEMP:  77;

MOUNT PLEASANT CLOUDY    74  53  47 S7        29.71F
6HR MIN TEMP:  63; 6HR MAX TEMP:  75;

MUSKEGON       LGT RAIN  66  57  72 NE7       29.72F
6HR MIN TEMP:  62; 6HR MAX TEMP:  72; 6HR PCP: TRACE;

STURGIS        PTSUNNY   76  64  67 NW3       29.69F
6HR MIN TEMP:  60; 6HR MAX TEMP:  76;

$$
MIZ016>042-281900-
NORTHERN LOWER MICHIGAN

CITY           SKY/WX    TMP DP  RH WIND       PRES   REMARKS
ALPENA         CLOUDY    74  57  55 S17       29.69F
6HR MIN TEMP:  57; 6HR MAX TEMP:  75; 6HR PCP:  0.01;

BEAVER ISLAND  RAIN      54  53  96 CALM      29.74R
6HR MIN TEMP:  53; 6HR MAX TEMP:  61;

BELLAIRE       MIX PCPN  56  54  93 SW3       29.76R VSB 1
6HR MIN TEMP:  56; 6HR MAX TEMP:  70;

CADILLAC       HVY RAIN  58  57  96 W6        29.75F
CHARLEVOIX     RAIN      55  55 100 W7        29.77F
6HR MIN TEMP:  55; 6HR MAX TEMP:  66;

GAYLORD        PTSUNNY   63  55  75 W14G20    29.72S THUNDER
6HR MIN TEMP:  59; 6HR MAX TEMP:  71; 6HR PCP:  0.02;

HOUGHTON LAKE  CLOUDY    72  54  53 S16       29.72F
6HR MIN TEMP:  61; 6HR MAX TEMP:  72;

MANISTEE       CLOUDY    57  55  94 E8        29.71F
OSCODA         CLOUDY    74  55  51 S18       29.72F
6HR MIN TEMP:  61; 6HR MAX TEMP:  74;

PELLSTON       RAIN      59  56  89 W12       29.73R FOG
6HR MIN TEMP:  58; 6HR MAX TEMP:  68; 6HR PCP:  0.40;

TRAVERSE CITY  RAIN      58  56  93 CALM      29.74S FOG
6HR MIN TEMP:  58; 6HR MAX TEMP:  71; 6HR PCP:  1.01;

LUDINGTON      DRIZZLE   57  57 100 CALM      29.72F
6HR MIN TEMP:  53; 6HR MAX TEMP:  62; 6HR PCP:  0.60;

$$
MIZ007>008-015-281900-
EASTERN UPPER MICHIGAN

CITY           SKY/WX    TMP DP  RH WIND       PRES   REMARKS
KINROSS        CLOUDY    61  55  81 E7        29.72S
6HR MIN TEMP:  54; 6HR MAX TEMP:  64; 6HR PCP: TRACE;

MACKINAC ISLAN PTSUNNY   51  51 100 CALM      29.72S
6HR MIN TEMP:  48; 6HR MAX TEMP:  61;

NEWBERRY       CLOUDY    56  55  97 SW3       29.71F
6HR MIN TEMP:  53; 6HR MAX TEMP:  56; 6HR PCP:  0.06;

S. S. MARIE    CLOUDY    59  53  80 SE9       29.72S
6HR MIN TEMP:  56; 6HR MAX TEMP:  63; 6HR PCP: TRACE;

$$
MIZ004>006-011>014-085-281900-
CENTRAL UPPER MICHIGAN

CITY           SKY/WX    TMP DP  RH WIND       PRES   REMARKS
MANISTIQUE     LGT RAIN  56  53  89 CALM      29.69F
6HR MIN TEMP:  47; 6HR MAX TEMP:  56; 6HR PCP:  0.19;

ESCANABA       CLOUDY    60  57  89 E5        29.68F
6HR MIN TEMP:  54; 6HR MAX TEMP:  60; 6HR PCP:  0.20;

SAWYER-GWINN   CLOUDY    61  55  82 SE6       29.68F
$$
MIZ001>003-009>011-084-281900-
WESTERN UPPER MICHIGAN

CITY           SKY/WX    TMP DP  RH WIND       PRES   REMARKS
IRON MOUNTAIN  PTSUNNY   67  52  58 VRB6      29.65F
6HR MIN TEMP:  56; 6HR MAX TEMP:  67; 6HR PCP:  0.01;

HOUGHTON       CLOUDY    65  51  60 SE10      29.64F
6HR MIN TEMP:  54; 6HR MAX TEMP:  65; 6HR PCP:  0.05;

COPPER HARBOR    N/A     59  54  83 CALM      29.65F
6HR MIN TEMP:  51; 6HR MAX TEMP:  60; 6HR PCP:  0.04;

IRONWOOD       TSTM      53  51  93 CALM      29.66F
6HR MIN TEMP:  53; 6HR MAX TEMP:  66;

$$

ABBREVIATIONS USED IN REMARKS
   TC - TEMPERATURE IN CELSIUS
  WCI - WIND CHILL INDEX
   HX - HEAT INDEX
  VSB - VISIBILITY





USA.gov is the U.S. government's official web portal to all federal, state and local government web resources and services.